Location: Jaakkola
(60.4247°N, 25.3814°E)
Time: 05:40:01
(UTC+00:00)

Daily predictions for brighter satellites

Satellite Brightness Start Highest point End
(mag) Time Altitude Azimuth Time Altitude Azimuth Time Altitude Azimuth
Cosmos 1331 Rocket 3.8 00:05:31 71° SSW 00:06:06 84° ESE 00:11:22 10° NNE
Cosmos 1959 Rocket 4.4 00:02:14 10° NNW 00:08:25 89° ENE 00:10:36 43° SSE
Cosmos 968 Rocket 3.9 00:03:57 10° NW 00:08:20 47° W 00:08:20 47° W
Cosmos 1633 Rocket 3.9 00:05:56 10° N 00:10:11 48° ENE 00:11:57 30° SE
SL-08 R/B 4.0 00:08:14 23° SE 00:10:56 52° ENE 00:15:27 10° NNW
Cosmos 2341 Rocket 4.0 00:05:23 10° NNW 00:11:41 64° W 00:13:03 52° SSW
Meteor 1-27 4.2 00:10:40 59° SSW 00:11:48 81° WNW 00:17:34 10° NNE
Cosmos 1869 3.4 00:13:34 69° N 00:13:34 69° N 00:17:05 10° NNE
SL-16 R/B 2.6 00:12:20 51° SW 00:13:12 55° WSW 00:19:17 10° NNW
Cosmos 1666 Rocket 4.0 00:10:52 10° N 00:15:20 60° ENE 00:16:42 40° SE
Cosmos 1315 Rocket 4.2 00:16:07 29° NW 00:16:07 29° NW 00:19:13 10° N
ARIANE 5 R/B 4.5 00:13:34 10° NE 00:17:42 24° E 00:21:31 11° SE
CZ-2D R/B 2.2 00:14:00 10° NNE 00:19:24 72° ESE 00:20:45 50° S
Cosmos 1943 Rocket 3.0 00:17:17 31° W 00:19:27 44° NNW 00:24:48 10° NE
Cosmos 1805 Rocket 3.4 00:15:53 10° NNW 00:20:04 75° WNW 00:20:04 75° WNW
AQUA 4.2 00:17:22 10° NNE 00:22:06 57° ESE 00:23:15 44° SSE
Meteor 1-29 4.1 00:19:19 10° N 00:21:42 38° NNW 00:21:42 38° NNW
Cosmos 1656 Rocket 3.7 00:21:42 50° WSW 00:23:02 67° NW 00:28:37 10° NE
COSMOS 2455 3.7 00:18:59 19° WNW 00:23:04 48° NNW 00:28:57 10° ENE
Cosmos 1606 4.2 00:24:11 26° ESE 00:25:09 29° E 00:28:27 10° NNE
NPP 3.8 00:19:53 10° NNE 00:25:19 69° ESE 00:26:59 44° S
ATLAS 5 CENTAUR R/B 2.4 00:26:24 38° SE 00:26:38 38° SE 00:31:11 10° ENE
Cosmos 2297 Rocket 2.4 00:23:33 10° NW 00:28:49 48° WSW 00:28:49 48° WSW
Cosmos 2082 3.6 00:27:39 10° NW 00:33:20 74° SW 00:39:00 10° SSE
Resurs 1-4 Rocket 2.0 00:28:08 10° NNE 00:33:27 88° ESE 00:34:53 50° SSW
NOSS 3-4 (A) 3.8 00:30:07 10° WNW 00:36:35 74° NNE 00:43:49 10° E
NOSS 3-4 (C) 3.8 00:30:14 10° WNW 00:36:41 74° NNE 00:43:55 10° E
SL-19 R/B 4.2 00:35:24 46° SSW 00:36:55 63° WSW 00:42:36 10° NNW
Genesis I 4.2 00:38:06 35° SE 00:38:06 35° SE 00:41:33 10° ENE
SL-19 R/B 4.1 00:32:56 10° NNE 00:38:09 70° WNW 00:39:25 50° SW
Cosmos 1354 Rocket 4.1 00:35:23 10° NW 00:40:28 50° WSW 00:40:35 50° WSW
Cosmos 2369 Rocket 3.0 00:41:05 28° W 00:43:34 44° NNW 00:49:02 10° NE
Nadezhda 1 Rocket 4.3 00:42:42 38° WSW 00:44:28 48° WNW 00:50:22 10° N
Meteor 1-25 Rocket 4.4 00:39:02 10° NNW 00:44:55 77° ENE 00:50:43 10° SSE
SJ 16-02 2.6 00:44:26 10° NNW 00:48:38 42° NE 00:52:49 10° ESE
CZ-4C R/B 2.8 00:47:10 21° W 00:51:24 68° N 00:58:41 10° E
USA 267 4.4 00:46:23 10° E 00:52:05 31° SE 00:54:57 22° S
NOSS 2-1 (E) 3.3 00:53:13 56° SSE 00:53:19 57° SE 00:57:24 10° ENE
Cosmos 2278 Rocket 4.0 00:48:33 10° WNW 00:53:26 29° N 00:58:20 10° ENE
NOSS 2-2 (E) 4.4 00:49:05 10° WNW 00:54:00 50° SW 01:00:43 10° SSE
Cosmos 1697 Rocket 4.2 00:50:47 15° SSE 00:54:31 29° ESE 00:59:19 10° NE
Helios 1B rocket 3.7 00:51:09 10° N 00:54:41 28° NW 00:55:05 27° WNW
Cosmos 405 Rocket 2.7 00:50:55 10° NNW 00:54:57 66° WSW 00:55:02 65° WSW
Meteor 1-28 Rocket 3.0 00:56:35 72° SSW 00:56:49 77° WSW 01:00:35 10° NNW
Cosmos 1980 Rocket 4.3 00:54:52 10° SSE 00:58:55 21° ESE 01:02:59 10° ENE
Cosmos 2263 Rocket 2.4 00:54:08 10° NW 00:59:47 72° NE 01:05:28 10° SE
ATLAS 2AS CENTAUR R/B 3.1 00:52:42 10° WNW 01:00:36 77° NNE 01:07:59 10° ESE
NOSS 2-2 (D) 4.4 00:57:37 10° WNW 01:02:27 50° SW 01:09:02 10° SSE
H-2A R/B 3.0 00:59:12 10° SE 01:03:28 50° ENE 01:07:50 10° NNW
Cosmos 1602 4.0 01:01:26 10° N 01:05:17 65° ENE 01:08:06 17° SSE
Cosmos 1821 Rocket 3.9 00:59:31 10° NNW 01:05:55 83° W 01:11:56 11° S
Cosmos 1844 Rocket 4.1 01:00:59 10° NW 01:06:16 39° NNE 01:11:33 10° E
Cosmos 2221 3.1 01:06:06 39° W 01:06:38 41° WNW 01:10:45 10° N
Cosmos 1818 4.0 01:05:33 33° SSW 01:07:44 53° SE 01:13:03 10° ENE
ERS-2 3.9 01:05:57 10° SE 01:09:17 34° ENE 01:12:37 10° N
Cosmos 2227 4.2 01:04:48 10° NW 01:10:32 82° NE 01:16:12 10° SE
Cosmos 1470 Rocket 3.5 01:10:38 10° NNW 01:15:05 86° WSW 01:18:21 18° S
SL-24 R/B 4.4 01:15:03 17° S 01:18:46 75° WSW 01:24:24 10° NNW
Sich 1 3.7 01:15:09 10° NNW 01:18:55 33° W 01:18:55 33° W
Cosmos 1934 Rocket 4.0 01:15:01 10° NNW 01:21:08 83° ENE 01:27:12 10° SSE
Cosmos 1500 4.3 01:18:34 10° N 01:22:20 46° ENE 01:26:03 10° SE
Cosmos 2227 Rocket 3.1 01:20:56 10° NW 01:25:13 27° W 01:25:13 27° W
Cosmos 1777 Rocket 4.1 01:21:08 10° NW 01:26:12 50° WSW 01:31:13 10° S
Cosmos 292 Rocket 4.3 01:26:39 31° W 01:28:31 46° NW 01:33:09 10° NNE
Cosmos 1238 Rocket 4.1 01:22:14 10° NNW 01:28:55 85° ENE 01:35:24 10° SSE
Cosmos 1898 Rocket 4.0 01:24:49 10° NNW 01:30:02 64° NE 01:35:16 10° SE
Landsat 5 3.8 01:27:30 10° SSE 01:32:01 79° ENE 01:36:30 10° NNW
Meteor 1-20 Rocket 4.2 01:26:52 10° NNW 01:32:15 56° W 01:36:41 15° S
USA 234 3.8 01:26:50 10° SSE 01:32:35 32° SW 01:37:44 13° W
ADEOS Rocket 3.7 01:26:13 10° SE 01:32:39 59° ENE 01:38:29 10° NNW
Cosmos 1992 Rocket 3.9 01:30:28 29° SW 01:33:12 87° WNW 01:38:29 10° NNE
Cosmos 1656 3.8 01:30:38 25° SSW 01:33:54 71° SE 01:39:26 10° NE
ADEOS II 2.1 01:30:05 10° NNE 01:35:22 73° WNW 01:38:28 25° SSW
Lacrosse 5 3.6 01:32:48 14° S 01:35:41 22° SE 01:39:35 10° E
CZ-4B R/B 3.5 01:32:56 10° NNE 01:37:55 68° WNW 01:40:47 26° SW
Cosmos 1782 3.7 01:34:33 12° S 01:38:11 49° E 01:42:07 10° NNE
CZ-2C R/B 4.1 01:35:33 10° NNE 01:39:04 37° E 01:42:38 10° SSE
Nadezhda 3 Rocket 4.0 01:33:54 14° S 01:39:17 85° E 01:45:29 10° NNE
Cosmos 1515 Rocket 4.1 01:37:57 11° S 01:42:12 58° E 01:46:35 10° NNE
Cosmos 1605 Rocket 4.1 01:37:17 10° NNW 01:43:42 82° ENE 01:50:08 10° SSE
Cosmos 405 3.0 01:42:57 39° SW 01:43:59 57° WNW 01:47:28 10° N
Cosmos 972 Rocket 4.4 01:40:30 14° S 01:44:33 56° ESE 01:49:27 10° NNE
Cosmos 1535 Rocket 4.5 01:38:11 10° NNW 01:44:34 78° W 01:50:58 10° S
CZ-4B R/B 3.1 01:43:00 10° SE 01:45:57 35° ENE 01:48:59 10° N
Meteor 1-11 Rocket 4.4 01:40:10 10° NNW 01:46:01 60° ENE 01:51:41 10° SSE
NOSS 2-1 (C) 3.2 01:44:51 34° WSW 01:46:22 81° NNW 01:50:42 10° ENE
Cosmos 1633 Rocket 3.8 01:43:58 10° NNW 01:47:51 32° W 01:48:58 28° WSW
IDEFIX/ARIANE 42P 2.8 01:43:04 10° NNE 01:48:23 72° ESE 01:53:39 10° S
SL-08 R/B 3.9 01:47:13 26° SW 01:48:58 35° W 01:53:14 10° NNW
Cosmos 220 Rocket 3.9 01:48:13 26° SSW 01:50:32 87° NW 01:54:51 10° NNE
Cosmos 1356 3.3 01:47:50 10° NNW 01:51:17 66° WSW 01:54:42 10° S
Cosmos 2181 Rocket 4.5 01:47:57 23° WSW 01:51:20 43° WNW 01:57:15 10° N
NOSS 2-1 (D) 3.2 01:49:44 31° WSW 01:51:24 78° NNW 01:55:45 10° ENE
IRS-1C 4.1 01:46:27 10° NNE 01:51:49 79° WNW 01:55:57 17° SSW
Cosmos 1933 Rocket 3.6 01:48:08 10° NNW 01:52:28 58° W 01:56:44 10° S
CSL-04 DEB 4.5 01:49:25 10° SSE 01:53:44 72° WSW 01:58:09 10° NNW
Cosmos 1328 Rocket 3.5 01:51:45 19° SSW 01:54:55 79° WNW 01:59:25 10° NNE
ARIANE 5 R/B 2.5 01:52:17 10° NNE 01:57:28 85° WNW 02:01:51 14° SSW
SL-16 R/B 4.1 01:57:26 15° W 01:58:15 15° W 02:01:46 10° NW
IRS-1D 3.9 01:53:11 10° NNE 01:58:22 51° WNW 02:01:47 21° SW
CZ-2D R/B 3.1 01:54:24 10° N 01:59:10 33° NW 02:02:04 20° WSW
Cosmos 1937 Rocket 3.7 01:54:08 10° NNW 01:59:20 74° NE 02:04:29 10° SE
Cosmos 2369 4.2 01:54:43 13° SSW 01:59:45 60° ESE 02:05:25 10° NE
Cosmos 2228 Rocket 4.0 01:55:48 10° S 02:00:01 49° E 02:04:19 10° NNE
Cosmos 1606 3.2 01:59:13 27° WSW 02:00:46 42° WNW 02:04:24 10° N
ATLAS CENTAUR R/B 3.6 01:48:01 10° W 02:02:30 71° SSW 02:07:44 10° ESE
Cosmos 1151 Rocket 3.0 02:00:38 20° SSW 02:03:33 63° WNW 02:07:55 10° N
Cosmos 1943 Rocket 3.8 01:59:39 10° WNW 02:04:29 28° N 02:09:17 10° NE
NOSS 4 (F) 4.5 02:03:18 18° WNW 02:05:24 75° SSW 02:08:35 10° SE
Cosmos 1733 Rocket 4.4 02:02:16 10° N 02:06:30 43° ENE 02:10:39 10° SE
SAR-Lupe-4 4.5 02:02:59 10° SE 02:06:30 52° ENE 02:10:02 10° N
COSMOS 2455 3.7 02:04:09 10° WNW 02:10:02 49° NNE 02:15:55 10° E
ATLAS 5 CENTAUR R/B 1.8 02:07:56 21° WSW 02:10:57 82° NNW 02:16:15 10° ENE
Cosmos 1869 Rocket 3.4 02:07:04 10° NNW 02:11:28 81° W 02:15:49 10° S
Cosmos 2297 Rocket 4.0 02:09:26 10° WNW 02:10:32 12° W 02:10:32 12° W
Cosmos 1536 3.7 02:07:43 10° N 02:11:46 55° ENE 02:15:46 10° SSE
Resurs 1-4 Rocket 3.3 02:08:25 10° N 02:12:49 28° NW 02:15:58 16° W
CZ-4C R/B 3.3 02:10:09 10° S 02:13:39 45° W 02:17:06 10° NNW
Genesis I 3.2 02:12:59 22° WSW 02:15:25 73° NNW 02:19:18 10° ENE
Cosmos 2100 Rocket 4.5 02:11:49 10° NNW 02:18:12 68° ENE 02:24:34 10° SSE
Cosmos 1933 3.9 02:18:15 18° SW 02:20:55 42° WNW 02:24:51 10° N
Cosmos 2360 4.5 02:18:37 10° SSW 02:24:20 72° SE 02:30:05 10° NE
RESURS DK-1 4.3 02:20:56 10° NW 02:24:35 28° NNE 02:28:14 10° E
CZ-2D R/B 3.5 02:20:34 10° NNE 02:24:40 64° WNW 02:28:45 11° SSW
Meteor 1-4 Rocket 4.1 02:22:15 10° SSE 02:25:28 35° E 02:28:44 10° NNE
SJ 16-02 1.6 02:23:06 10° NW 02:27:18 45° WSW 02:31:29 10° S
NOSS 3-4 (A) 3.8 02:21:03 10° WNW 02:27:38 67° SW 02:35:01 10° SE
NOSS 3-4 (C) 3.8 02:21:09 10° WNW 02:27:45 67° SW 02:35:08 10° SE
Cosmos 2369 Rocket 3.7 02:24:00 10° WNW 02:28:55 29° N 02:33:52 10° NE
PSLV R/B 4.1 02:25:20 10° NNE 02:29:33 60° ESE 02:33:43 10° S
Meteor 1-26 Rocket 4.1 02:24:31 10° SSW 02:29:56 69° WNW 02:35:22 10° NNE
ASTEX 1 3.7 02:25:57 10° N 02:30:47 51° WNW 02:35:37 10° SSW
CZ-2C R/B 2.9 02:29:40 10° NNE 02:34:44 66° ESE 02:39:51 10° S
Cosmos 1689 Rocket 3.1 02:32:32 10° SE 02:35:26 50° ENE 02:38:21 10° N
USA 267 3.7 02:29:38 10° E 02:36:04 56° SSE 02:42:17 11° WSW
Cosmos 389 Rocket 2.4 02:32:35 10° SSW 02:36:07 71° WNW 02:39:43 10° NNE
COSMOS 2441 4.4 02:31:55 10° NNE 02:36:51 80° WNW 02:41:46 10° SSW
PAYLOAD A 4.1 02:32:53 10° NNE 02:37:40 73° ESE 02:42:21 10° S
Cosmos 1697 Rocket 2.7 02:32:33 11° SW 02:38:00 84° NW 02:43:41 10° NE
Cosmos 2278 Rocket 3.5 02:33:32 10° NW 02:38:54 41° NNE 02:44:15 10° E
H-2A R/B 2.7 02:35:36 10° SSW 02:39:37 34° W 02:43:46 10° NNW
Cosmos 1844 3.9 02:34:00 10° NW 02:39:39 76° NE 02:45:13 10° SE
Cosmos 1459 Rocket 4.1 02:34:06 10° NNW 02:40:18 82° ENE 02:46:23 10° SSE
CZ-4C R/B 2.8 02:34:03 10° WNW 02:40:29 85° NNE 02:48:16 10° ESE
Cosmos 1980 Rocket 2.5 02:36:26 10° SSW 02:42:06 72° SE 02:47:45 10° NE
ERS-2 2.6 02:39:21 10° S 02:42:49 39° W 02:46:18 10° NNW
Cosmos 2263 Rocket 2.7 02:38:20 10° NW 02:43:28 37° WSW 02:48:35 10° S
Cosmos 990 Rocket 4.2 02:38:46 10° NW 02:43:45 48° WSW 02:48:44 10° S
NOSS 2-1 (E) 3.7 02:40:33 13° W 02:43:51 62° N 02:48:35 10° ENE
Iridium 2 4.0 02:40:19 10° SSW 02:43:56 45° WNW 02:47:36 10° N
Cosmos 2322 Rocket 4.1 02:42:57 10° SSE 02:47:51 31° ESE 02:52:48 10° NE
Cosmos 1844 Rocket 2.7 02:45:04 10° NW 02:50:45 87° SW 02:56:25 10° SE
Cosmos 1818 3.7 02:46:11 12° WSW 02:51:18 69° NNW 02:56:47 10° ENE
ATLAS 2AS CENTAUR R/B 2.9 02:44:03 10° WNW 02:51:39 63° SW 02:58:40 10° SE
Spot 4 Rocket 4.3 02:48:33 10° NNE 02:53:33 52° WNW 02:58:31 10° SW
SL-16 R/B 3.7 02:50:08 10° S 02:55:20 38° ESE 03:00:33 10° NE
USA 307 4.4 02:52:59 10° SW 02:56:35 27° SSE 03:00:10 10° ESE
Cosmos 1500 4.1 02:54:26 10° NNW 02:57:46 28° W 03:01:04 10° SSW
Cosmos 1812 2.7 02:55:26 10° SSW 02:59:17 77° WNW 03:03:10 10° NNE
USA 308 4.4 02:56:02 10° SW 02:59:39 27° SSE 03:03:16 10° ESE
COSMO-SKYMED 1 2.7 02:57:41 10° SSE 03:02:03 82° ENE 03:06:26 10° NNW
Cosmos 1666 3.1 03:00:09 10° NNW 03:03:49 42° W 03:07:26 10° SSW
Cosmos 2298 Rocket 4.2 02:59:21 10° NNW 03:04:43 84° ENE 03:10:03 10° SE
Cosmos 972 4.4 03:01:28 10° SW 03:06:27 75° WNW 03:11:23 10° NNE
Cosmos 1975 4.2 03:03:04 10° N 03:07:00 45° ENE 03:10:53 10° SE
Cosmos 1544 3.7 03:06:42 10° N 03:10:18 62° ENE 03:13:53 10° SSE
Meteor 2-6 Rocket 4.3 03:04:36 10° SSW 03:10:19 72° WNW 03:16:14 10° NNE
Cosmos 2173 Rocket 4.0 03:04:06 10° NNW 03:10:22 71° W 03:16:41 10° S
EP 3 4.0 03:09:10 10° W 03:11:07 51° NNW 03:13:15 10° ENE
Cosmos 1898 Rocket 4.1 03:07:11 10° NW 03:11:55 35° WSW 03:16:40 10° S
CZ-2C R/B 3.4 03:10:05 10° N 03:13:31 35° WNW 03:16:58 10° SW
USA-17 4.4 03:11:11 10° WNW 03:14:22 78° SSW 03:18:19 10° ESE
ADEOS II 3.5 03:10:20 10° N 03:14:23 23° NW 03:18:26 10° W
Cosmos 1782 3.8 03:11:10 10° SW 03:14:44 29° WNW 03:18:19 10° N
deb Chang Zheng 4 3.8 03:11:11 10° NNE 03:15:32 75° ESE 03:19:50 10° SSW
Cosmos 1908 Rocket 4.0 03:11:04 10° NNW 03:15:33 71° ENE 03:20:01 10° SSE
ADEOS Rocket 3.4 03:12:10 10° SSW 03:18:27 43° W 03:24:11 10° NNW
